Change the Weather History Date:

Wednesday, May 29, 2013

  Actual Average Record
Temperature  
Mean Temperature 57 °F -  
Max Temperature 64 °F 66 °F 85 °F (1973)
Min Temperature 51 °F 49 °F 35 °F (1951)
Degree Days  
Heating Degree Days 8    
Growing Degree Days 7 (Base 50)    
Moisture  
Dew Point 47 °F    
Average Humidity 71    
Maximum Humidity 88    
Minimum Humidity 56    
Precipitation  
Precipitation 0.17 in - - ()
Sea Level Pressure  
Sea Level Pressure 29.82 in    
Wind  
Wind Speed 3 mph (SW)    
Max Wind Speed 14 mph    
Max Gust Speed 24 mph    
Visibility 10 miles    
Events Rain    
Averages and records for this station are not official NWS values.
T = Trace of Precipitation, MM = Missing Value Source: NWS Daily Summary

Daily Weather History Graph

Daily Weather History Graph

Search for Another Location

Airport or City:

Trip Planner

Search our weather history database for the weather conditions in past years. The results will help you decide how hot, cold, wet, or windy it might be!

Date:

Astronomy

May. 29, 2013 Rise Set
Actual Time 5:17 AM PDT 8:56 PM PDT
Civil Twilight 4:38 AM PDT 9:35 PM PDT
Nautical Twilight 3:46 AM PDT 10:27 PM PDT
Astronomical Twilight 2:35 AM PDT 11:40 PM PDT
Moon 12:11 AM PDT (5/29) 10:35 AM PDT (5/29)
Length of Visible Light 16h 56m
Length of Day
15h 38m
Waning Gibbous, 72% of the Moon is Illuminated
May 29
Waning Gibbous
May 31
Last Quarter
Jun 8
New
Jun 16
First Quarter
Jun 23
Full

Hourly Weather History & Observations

Time (PDT) Temp. Dew Point Humidity Pressure Visibility Wind Dir Wind Speed Gust Speed Precip Events Conditions
12:53 AM 55.0 °F 45.0 °F 69% 29.76 in 10.0 mi Calm Calm - N/A   Overcast
1:53 AM 55.9 °F 46.9 °F 72% 29.73 in 10.0 mi Calm Calm - N/A   Mostly Cloudy
2:53 AM 55.0 °F 48.0 °F 77% 29.71 in 10.0 mi Calm Calm - N/A   Mostly Cloudy
3:53 AM 54.0 °F 48.0 °F 80% 29.71 in 8.0 mi SW 5.8 mph - 0.00 in Rain Light Rain
4:53 AM 51.1 °F 46.9 °F 86% 29.71 in 7.0 mi Calm Calm - 0.10 in Rain Light Rain
5:53 AM 51.1 °F 46.9 °F 86% 29.71 in 10.0 mi WNW 3.5 mph - 0.04 in Rain Light Rain
6:53 AM 52.0 °F 46.9 °F 83% 29.71 in 10.0 mi NW 3.5 mph - 0.03 in   Overcast
7:14 AM 51.8 °F 48.2 °F 88% 29.71 in 10.0 mi Calm Calm - 0.00 in Rain Light Rain
7:53 AM 53.1 °F 48.0 °F 83% 29.72 in 10.0 mi Calm Calm - 0.00 in Rain Light Rain
8:53 AM 55.0 °F 46.9 °F 74% 29.72 in 10.0 mi Variable 3.5 mph - 0.00 in   Mostly Cloudy
9:53 AM 57.0 °F 48.0 °F 72% 29.73 in 10.0 mi Calm Calm - N/A   Mostly Cloudy
10:53 AM 55.9 °F 46.9 °F 72% 29.76 in 10.0 mi NW 3.5 mph - N/A   Overcast
11:53 AM 55.9 °F 46.9 °F 72% 29.78 in 10.0 mi West 3.5 mph - N/A   Mostly Cloudy
12:53 PM 57.0 °F 48.0 °F 72% 29.81 in 10.0 mi SSW 5.8 mph - 0.00 in Rain Light Rain
1:53 PM 57.9 °F 46.9 °F 67% 29.82 in 10.0 mi South 6.9 mph - 0.00 in   Overcast
2:53 PM 63.0 °F 48.0 °F 58% 29.84 in 10.0 mi SSW 11.5 mph 18.4 mph 0.00 in   Mostly Cloudy
3:53 PM 63.0 °F 48.0 °F 58% 29.85 in 10.0 mi SSW 13.8 mph 24.2 mph 0.00 in   Mostly Cloudy
4:53 PM 62.1 °F 46.0 °F 56% 29.86 in 10.0 mi SSW 11.5 mph 21.9 mph N/A   Mostly Cloudy
5:53 PM 59.0 °F 46.0 °F 62% 29.88 in 10.0 mi SW 6.9 mph 20.7 mph N/A   Overcast
6:53 PM 60.1 °F 46.0 °F 60% 29.90 in 10.0 mi SW 8.1 mph - N/A   Mostly Cloudy
7:53 PM 57.9 °F 45.0 °F 62% 29.92 in 10.0 mi SSW 6.9 mph - N/A   Mostly Cloudy
8:53 PM 57.0 °F 44.1 °F 62% 29.94 in 10.0 mi SSW 4.6 mph - N/A   Overcast
9:53 PM 57.0 °F 44.1 °F 62% 29.95 in 10.0 mi South 4.6 mph - N/A   Overcast
10:53 PM 55.0 °F 46.0 °F 72% 29.97 in 10.0 mi SSW 6.9 mph - N/A   Overcast
11:07 PM 55.4 °F 46.4 °F 72% 29.97 in 10.0 mi South 4.6 mph - N/A   Overcast
11:31 PM 55.4 °F 46.4 °F 72% 29.98 in 10.0 mi South 5.8 mph - 0.00 in Rain Light Rain
11:53 PM 54.0 °F 46.9 °F 77% 29.99 in 10.0 mi South 9.2 mph - 0.00 in   Overcast